Theta_e
287 288 289 290 291 291 291 290 290 289 290 290 287 288 290 287 284 282 287 287 286 290 292 293 292 293 295 294 294 295 296 295 294 294 295 296 296 296 297 297 298 296 296 297 298 298 299 298 297 297 297 297 295 293 293 293 292 295 294 292 294 293 292 293 295 296 295 295 296 295 296 297 298 300 301 301 302 303 303 304 306 306 308 309 308 309 309
285 287 288 290 289 290 289 290 290 291 290 289 290 289 290 288 287 288 288 287 288 292 293 294 295 293 293 294 295 294 294 293 294 294 294 295 296 296 296 295 295 295 296 295 296 296 296 297 298 297 297 297 297 297 296 294 294 296 293 294 293 293 293 294 294 294 294 294 294 294 295 296 296 297 297 298 298 300 302 302 302 301 301 302 305 308 309
284 287 288 288 288 287 286 289 290 290 290 290 290 290 290 289 288 288 288 286 286 292 294 295 296 293 292 293 293 294 294 292 291 292 293 293 294 295 295 295 294 294 293 293 293 293 295 298 298 299 299 298 295 295 295 295 295 295 292 293 293 292 294 294 293 292 292 293 293 293 294 294 294 294 296 296 296 297 298 299 299 298 297 300 303 305 307
281 284 285 287 287 287 287 286 287 288 288 287 289 288 290 288 286 288 287 285 286 293 296 294 295 296 295 294 294 294 294 291 290 291 292 291 292 292 294 294 292 292 293 294 293 294 295 295 296 297 298 297 295 296 295 295 295 294 293 292 292 292 292 293 293 293 292 292 291 292 292 293 293 293 292 292 293 294 295 295 296 293 296 299 302 304 306
281 284 286 285 284 284 282 283 287 289 290 291 292 292 292 291 291 287 285 287 293 294 292 293 295 296 296 294 292 291 289 288 290 290 290 291 290 291 292 292 291 291 292 292 295 296 294 296 296 295 293 293 294 294 294 294 294 292 292 292 292 292 292 292 292 293 292 292 292 292 292 292 291 291 290 291 291 292 293 292 290 293 296 297 299 300 301
280 281 283 284 282 277 278 290 292 292 289 290 288 289 290 292 292 290 293 293 293 294 292 292 293 294 294 293 290 289 290 290 289 289 290 290 289 290 290 290 292 293 293 293 293 294 294 293 292 291 291 291 291 291 292 292 292 292 292 292 291 292 292 292 292 292 292 292 292 292 291 290 289 289 289 290 290 289 289 289 290 291 291 293 295 296 297
278 280 282 280 275 277 290 292 293 293 293 293 291 291 292 292 292 292 289 288 289 291 293 295 295 295 292 290 290 290 289 290 290 291 291 291 291 290 291 292 292 291 291 290 290 291 292 291 289 290 292 292 292 292 291 291 290 290 290 290 291 290 291 291 291 291 291 291 291 291 291 290 289 289 288 288 288 289 288 288 289 290 290 290 292 293 295
280 279 280 273 275 284 286 288 290 293 291 289 287 285 286 287 289 290 289 289 290 290 289 289 289 289 290 288 289 289 291 290 290 291 291 291 290 290 291 290 290 289 288 289 288 289 289 289 290 289 289 290 291 291 290 290 290 290 289 289 289 289 289 289 289 289 289 289 290 290 290 289 289 289 289 288 288 288 287 287 287 287 287 289 291 292 293
276 277 279 277 280 280 283 284 285 287 286 285 285 282 286 289 289 290 291 290 289 288 288 289 289 288 288 287 291 290 290 291 291 292 292 292 291 291 290 289 290 290 288 287 287 287 286 286 289 289 288 288 289 289 289 290 289 289 289 289 289 289 289 289 289 289 289 289 288 288 288 288 288 288 288 289 288 286 287 287 286 287 287 288 288 289 290
278 274 273 274 273 271 279 283 283 288 289 291 290 286 285 288 289 290 289 288 288 288 288 288 288 287 286 285 288 288 288 290 290 289 289 288 288 287 288 287 287 287 288 286 286 285 285 285 285 285 284 286 286 286 287 287 288 288 288 288 289 288 288 288 288 288 288 288 288 288 288 287 287 287 287 287 287 287 287 288 287 287 287 287 287 287 288
277 274 275 272 272 276 280 282 285 287 290 291 288 283 281 285 288 289 289 289 289 289 288 289 286 283 282 284 287 288 287 287 286 286 287 287 287 287 287 287 287 287 287 286 287 285 285 286 286 284 284 284 285 285 285 285 285 286 287 287 288 287 287 287 287 287 287 287 286 287 287 287 287 287 287 287 287 287 287 287 287 287 287 287 287 287 286
275 277 273 273 271 275 280 283 283 288 289 290 286 271 275 281 287 289 289 289 289 290 289 286 285 284 282 285 286 287 286 285 285 285 286 286 286 287 286 286 286 286 286 285 286 286 286 285 284 284 283 284 283 284 284 283 284 285 286 286 286 286 286 286 286 286 286 285 285 285 285 286 286 286 287 286 287 287 286 287 287 287 287 287 287 287 287
276 278 270 269 273 280 281 281 284 286 291 288 277 273 277 279 283 286 288 288 289 287 284 284 283 285 287 286 286 286 283 284 285 284 284 285 285 287 286 286 285 286 285 285 285 284 285 284 284 284 284 283 284 283 283 282 283 284 285 285 285 285 285 285 285 284 285 284 284 285 285 285 285 285 285 285 286 286 286 286 286 286 286 286 287 287 288
277 275 273 273 272 279 284 282 287 288 286 273 275 280 280 287 285 286 287 287 285 284 284 284 284 285 285 285 284 284 283 284 284 284 283 283 284 282 282 283 284 284 284 284 283 284 285 285 284 284 284 283 283 282 282 283 283 284 284 284 284 284 284 284 284 285 285 285 285 286 286 285 285 285 285 284 284 285 285 285 285 285 286 286 287 287 288
273 270 271 271 271 276 286 286 284 285 279 278 281 283 285 285 287 285 284 286 285 286 285 284 286 285 283 285 285 285 284 284 286 286 285 285 286 285 284 285 283 283 284 283 284 283 285 284 284 283 283 283 283 282 283 284 284 283 283 283 283 283 283 283 284 284 285 285 286 286 286 286 286 286 286 285 284 283 283 284 284 285 285 286 286 286 287
276 275 273 274 278 285 287 289 283 285 285 284 286 288 286 285 282 287 285 283 285 284 287 285 284 283 284 284 283 283 283 283 283 283 282 282 282 282 281 281 282 283 284 284 283 282 283 284 284 283 283 282 283 283 285 286 286 286 285 284 284 284 283 283 283 284 285 285 286 286 286 286 286 286 286 286 286 285 284 283 284 285 285 284 285 286 286
278 278 280 280 283 283 287 288 288 287 287 287 286 287 289 287 284 281 286 286 283 284 286 285 285 283 283 284 284 285 284 282 282 282 282 282 283 283 284 283 282 282 283 282 282 281 281 282 283 283 281 282 281 282 284 283 284 285 285 285 285 285 285 284 284 285 285 285 285 286 286 286 285 286 286 286 286 286 285 285 284 284 285 285 285 285 286
282 282 281 282 282 284 286 288 285 288 287 285 285 288 287 283 284 285 287 285 285 284 285 286 282 282 282 283 283 282 281 281 281 281 281 281 280 280 281 280 280 281 280 280 280 280 281 281 282 282 281 280 282 284 283 283 282 282 282 283 283 284 284 285 285 285 284 285 285 285 286 286 285 285 285 285 285 285 285 285 284 284 284 284 284 285 285
280 277 281 283 283 283 284 288 285 284 284 286 284 285 285 284 283 284 284 286 285 284 281 282 283 282 281 283 281 280 280 280 279 279 280 280 280 281 281 281 280 280 279 281 281 280 280 280 281 281 279 281 282 283 282 282 282 281 281 282 282 283 283 284 284 284 284 284 284 284 284 285 285 285 285 285 285 285 285 285 285 284 284 284 284 284 285
281 278 281 283 283 283 284 286 287 288 285 284 282 282 283 284 283 284 284 284 284 281 283 281 282 283 281 282 281 280 280 280 279 279 279 280 279 279 279 279 279 278 279 278 279 280 281 282 281 281 281 281 282 281 281 282 282 282 282 282 282 281 281 282 283 283 283 283 283 283 284 284 284 284 285 285 285 285 285 285 284 284 284 284 284 284 285
279 280 280 281 283 283 283 282 283 285 286 284 283 284 285 286 286 284 282 282 283 281 282 280 281 281 280 280 280 280 278 278 279 279 279 279 279 279 278 278 279 279 278 277 279 279 281 282 281 282 282 281 282 282 283 282 282 281 281 281 281 280 280 281 281 282 283 282 282 282 283 283 284 284 284 285 285 285 286 286 286 285 285 286 286 285 285
278 280 281 281 280 278 284 283 282 283 283 284 283 283 283 283 282 280 281 279 279 280 280 280 281 281 281 279 278 278 278 278 278 278 278 278 278 278 278 279 278 277 277 277 278 279 280 280 280 281 281 282 282 282 282 282 281 281 281 280 279 278 279 280 280 280 280 280 281 282 282 283 283 284 285 286 286 285 285 286 286 287 287 286 287 287 286
280 283 282 286 284 281 282 283 281 280 281 282 281 280 279 278 277 278 279 278 278 278 277 277 278 277 278 278 278 277 278 278 278 278 278 278 279 279 277 277 277 277 278 277 276 276 279 279 279 279 279 280 280 281 281 282 281 280 278 278 278 278 278 278 279 279 279 279 280 280 281 282 283 283 283 285 286 286 286 286 286 287 287 287 287 287 286
283 283 282 283 284 283 282 279 278 279 279 280 278 278 278 277 277 277 277 277 277 276 277 277 277 277 277 276 277 276 276 277 277 277 277 277 277 277 278 277 277 276 277 276 276 276 277 277 277 277 277 278 279 280 280 278 277 276 276 276 276 276 276 276 278 278 278 278 279 279 280 281 282 282 282 282 284 286 286 286 286 286 287 287 287 287 287
283 282 282 282 282 280 279 278 279 279 279 279 279 278 278 278 277 277 276 276 276 276 277 277 276 276 276 276 276 275 275 275 276 275 275 276 276 276 276 276 275 275 275 275 275 275 275 275 275 276 276 277 278 277 275 274 274 274 274 274 274 274 275 276 277 277 277 277 278 278 278 278 279 281 282 282 281 282 285 286 286 286 286 287 287 287 287
281 281 280 280 279 279 279 279 279 279 278 278 277 275 275 277 276 276 276 276 276 276 275 275 275 275 275 274 274 274 273 273 273 274 273 273 274 275 275 274 274 274 274 273 273 273 273 273 274 274 275 276 275 272 270 272 272 272 272 272 273 274 275 276 276 276 276 276 276 277 277 278 279 280 281 282 282 282 282 282 284 285 286 287 287 287 287
276 277 281 279 279 278 279 279 278 278 276 276 275 274 274 274 275 275 274 273 272 273 273 273 272 272 272 271 270 271 270 271 271 271 272 272 272 273 273 272 272 272 271 271 271 272 273 274 273 274 274 274 273 271 271 272 272 272 273 273 274 275 276 276 276 276 276 276 276 276 277 277 278 279 279 281 281 281 281 281 281 282 283 285 286 287 287
275 274 275 279 278 277 277 277 275 274 274 273 272 272 273 273 273 272 271 271 271 271 271 270 269 268 268 269 268 268 268 268 268 269 270 270 271 270 270 269 270 270 270 270 270 271 272 272 271 271 272 273 273 272 272 273 273 273 274 274 275 275 275 275 275 275 275 276 276 276 276 277 278 278 279 280 280 281 282 282 282 282 283 284 285 286 286
273 274 275 276 277 278 278 276 274 273 272 272 272 272 271 270 269 269 268 269 268 267 269 267 267 266 267 267 267 266 266 267 267 268 268 269 269 268 268 268 268 268 269 269 269 269 269 269 270 270 271 273 273 274 275 275 275 275 275 275 274 274 274 274 274 274 274 274 275 276 277 277 278 278 279 279 280 281 281 281 282 282 283 284 285 285 286
271 273 274 275 276 277 276 274 272 271 270 269 269 268 268 267 266 266 267 267 266 266 266 265 265 264 265 264 265 265 265 265 266 267 267 267 267 266 267 267 267 268 268 268 268 269 268 269 269 270 271 273 274 275 275 274 274 274 273 273 272 272 272 272 273 273 273 273 274 275 276 276 277 278 278 278 279 279 279 280 280 281 282 283 284 283 283
271 272 272 273 273 273 273 272 272 270 268 267 267 267 266 265 264 265 265 266 264 264 263 262 262 262 262 263 263 264 264 265 265 265 265 265 265 266 266 266 266 266 267 267 268 268 268 269 270 271 273 273 272 271 270 270 270 270 270 269 269 270 271 272 272 271 271 272 273 274 274 275 276 277 277 277 278 278 279 279 280 280 280 281 282 283 284
271 270 270 270 270 270 269 269 269 267 266 265 264 264 264 262 260 261 261 262 261 261 261 261 260 261 261 261 262 262 262 262 263 263 264 264 264 265 265 265 266 266 266 266 267 268 269 270 271 272 271 270 269 269 268 268 268 267 266 267 267 267 268 270 269 270 271 271 272 272 273 274 274 275 275 276 277 277 278 278 278 278 279 279 280 281 283
271 270 271 267 267 267 266 266 265 264 263 262 263 263 262 261 261 261 260 261 260 260 260 259 260 260 259 260 260 260 261 262 262 263 263 263 264 265 265 265 264 265 265 267 268 269 269 268 268 268 267 267 267 267 267 267 266 265 264 265 265 266 267 268 269 269 270 270 271 271 272 273 273 273 274 275 276 276 277 277 277 277 278 279 279 280 281
270 270 269 267 266 266 266 264 262 260 261 262 261 260 260 260 258 259 259 259 258 258 259 259 259 259 259 259 260 260 261 261 261 262 262 263 263 263 264 265 265 266 267 268 267 266 266 265 264 264 266 266 266 266 265 264 263 263 264 265 265 266 266 267 268 269 269 269 270 271 271 271 271 272 273 274 275 275 275 275 275 275 275 276 277 278 280
262 262 262 262 262 261 261 260 259 259 258 258 257 257 258 257 257 257 259 258 257 258 259 259 259 259 260 260 260 260 260 260 261 261 261 262 262 263 264 265 266 267 265 264 264 264 264 264 264 264 264 264 263 263 263 262 263 263 264 265 266 266 266 267 267 267 267 268 269 269 269 270 271 273 273 274 274 274 274 274 274 275 275 275 276 278 278
259 260 260 259 257 256 255 255 256 255 256 255 256 256 256 257 257 256 256 257 259 259 259 259 259 260 260 260 259 260 260 260 260 260 261 262 262 263 264 264 264 262 261 262 264 264 262 262 263 264 263 262 263 263 263 263 264 264 264 265 265 265 265 266 266 266 267 267 268 269 270 271 272 272 272 272 272 273 273 273 273 274 274 275 275 275 274
257 256 256 255 256 254 254 254 254 254 254 253 255 254 255 256 256 257 258 258 259 259 259 259 259 259 258 259 259 259 259 259 259 260 260 261 262 262 261 260 260 260 261 261 263 262 260 261 262 263 263 262 263 262 263 264 263 264 264 264 264 264 265 265 266 266 267 268 268 269 270 271 271 271 272 271 271 271 272 272 272 271 271 271 271 272 272
254 254 254 254 253 253 252 252 252 252 252 252 252 254 255 255 255 256 256 257 258 259 259 259 259 259 259 259 258 257 257 258 258 259 259 259 259 259 259 259 260 261 260 260 262 260 259 261 262 262 262 262 262 262 263 263 264 263 263 263 264 264 264 265 265 266 267 267 269 270 270 270 269 269 270 270 270 269 269 269 269 268 268 268 269 269 268
253 253 253 253 252 252 251 251 251 251 251 251 252 252 254 255 255 255 255 256 257 258 258 257 258 257 256 256 256 256 256 257 257 257 257 256 257 258 258 259 259 260 260 260 260 260 260 261 262 261 261 261 262 262 262 263 263 263 263 264 264 264 265 265 265 267 268 268 268 268 268 268 268 268 268 267 267 267 267 267 266 266 266 266 266 266 266
252 252 252 252 251 252 252 250 251 250 250 250 251 252 253 253 254 254 254 255 255 257 256 255 255 256 255 255 255 255 256 256 256 255 255 255 256 256 257 258 258 257 258 261 260 260 261 262 261 260 261 261 261 261 262 263 264 264 264 264 264 265 265 266 266 265 265 265 265 266 265 265 266 266 266 266 265 265 265 265 264 264 264 264 264 264 264
252 252 252 252 252 253 251 250 250 250 250 250 251 252 253 253 253 253 253 255 255 255 254 254 255 255 255 254 255 255 255 255 255 254 254 254 254 255 256 256 258 257 258 260 260 260 261 261 260 260 260 261 261 262 262 263 264 263 263 263 263 264 263 263 263 263 263 263 263 262 262 263 263 262 263 263 262 262 262 262 263 263 262 262 262 263 263
252 252 251 251 251 251 251 251 250 250 251 250 251 251 252 252 253 253 254 255 255 255 253 253 255 255 255 255 255 254 253 253 252 253 253 254 254 254 255 257 257 256 260 260 260 260 259 259 260 260 260 261 261 262 263 263 262 262 262 262 262 263 262 262 262 262 262 262 262 261 261 261 260 260 261 261 260 260 260 260 260 260 260 261 261 261 261
249 248 248 250 250 248 248 248 248 249 250 251 251 251 251 251 252 252 253 253 253 253 252 252 253 255 255 253 251 251 251 251 251 251 252 253 254 255 256 256 255 257 260 260 259 258 258 258 259 259 261 261 261 262 262 262 261 261 261 261 262 262 261 261 261 261 261 261 260 260 260 260 260 259 260 259 259 259 259 259 259 259 260 260 260 260 260
247 247 247 247 248 249 247 247 248 248 249 251 250 250 250 251 252 252 253 253 253 253 253 252 251 251 251 251 249 251 251 251 251 251 251 253 254 250 250 252 255 258 260 259 258 258 258 258 258 260 261 261 261 261 261 261 260 260 260 260 260 260 260 260 260 260 260 260 260 260 260 260 260 259 259 259 259 259 260 259 259 259 259 259 260 260 260
246 247 247 248 248 247 248 249 249 250 251 250 250 251 251 251 252 251 251 252 252 253 253 252 252 252 251 250 250 250 252 251 251 251 251 252 254 253 254 258 257 258 258 259 258 257 257 258 259 260 260 261 261 261 260 260 260 260 260 260 260 259 259 259 259 259 260 260 260 259 260 259 259 259 258 258 259 259 259 259 259 259 259 259 259 259 259
246 246 247 250 248 248 250 250 250 249 248 249 251 253 253 251 250 250 249 251 251 252 252 252 250 252 251 250 249 250 249 250 251 250 252 253 252 253 256 258 257 258 259 259 256 257 256 259 260 260 260 260 260 259 259 259 259 259 259 259 259 259 258 258 258 258 259 259 259 259 258 258 258 257 257 256 257 257 258 259 259 259 259 259 259 259 259
247 246 245 247 249 249 249 249 249 249 249 248 251 254 253 251 251 251 251 252 251 251 251 249 249 250 249 249 250 251 252 253 254 252 250 248 252 255 256 257 257 258 258 257 257 257 258 258 259 259 259 259 259 258 258 258 258 258 258 258 258 258 258 258 258 258 258 258 259 259 259 259 257 256 257 257 257 257 257 257 257 257 258 259 259 259 259
247 248 249 248 249 249 248 248 249 250 249 253 254 254 252 251 250 250 251 252 252 249 249 249 250 250 249 248 248 250 252 251 252 254 251 251 253 254 254 253 256 258 258 258 258 258 259 259 259 259 259 259 258 258 258 258 258 257 257 257 257 257 257 257 257 257 257 258 258 257 257 257 257 257 257 256 256 257 257 257 257 257 258 257 257 257 258
248 249 249 249 250 249 250 250 251 253 254 254 252 254 251 251 250 251 251 251 249 249 251 251 250 250 250 252 252 252 252 254 254 254 253 254 256 255 255 256 257 258 258 257 256 256 258 258 258 258 258 258 257 257 257 257 257 257 257 257 257 257 257 257 257 257 257 257 257 257 256 256 256 256 256 256 256 256 257 257 257 256 256 257 257 258 258
248 247 250 252 252 252 252 252 253 254 255 253 254 252 251 251 252 253 252 251 251 253 252 252 252 252 252 251 251 252 252 253 254 255 255 255 254 255 256 256 256 257 258 257 256 256 257 258 257 257 257 256 256 256 256 256 256 256 256 256 256 256 256 257 257 256 256 256 255 255 255 255 255 255 255 254 255 255 255 255 255 257 257 257 257 257 257
250 253 253 254 253 254 251 253 255 254 251 253 251 252 252 252 253 254 252 253 251 252 253 252 252 253 252 252 252 251 252 252 253 256 255 255 254 256 257 256 256 257 257 256 256 255 255 255 256 256 256 256 255 255 255 256 256 255 256 255 255 255 255 255 255 254 255 255 254 254 254 254 253 253 253 253 254 253 254 254 254 254 254 254 254 255 255
252 252 251 251 252 252 252 254 254 255 253 253 252 252 252 252 251 253 252 255 253 252 252 251 253 252 251 251 253 252 252 253 254 253 255 255 255 253 255 256 255 255 254 254 254 254 254 255 256 256 256 255 255 254 255 256 255 254 255 255 255 255 255 255 255 254 254 254 253 253 253 253 253 252 252 252 252 253 253 253 253 253 253 253 253 253 253
Wind_Speed
4 3 7 10 10 15 17 19 19 21 18 16 18 17 15 8 9 13 16 12 11 18 18 16 10 10 11 9 6 7 1 2 2 4 5 6 6 7 7 8 8 6 6 6 7 7 7 6 6 6 6 6 5 4 3 4 5 6 6 5 6 6 6 6 7 7 7 6 6 7 7 7 8 9 8 8 8 8 8 8 8 7 7 7 8 9 10
8 6 7 10 16 14 12 15 18 21 21 21 20 18 13 13 12 15 13 11 19 18 16 14 15 5 7 7 6 1 3 2 4 5 6 8 9 7 7 7 7 5 6 7 7 6 6 6 7 6 5 4 4 4 5 5 5 6 6 6 5 6 6 7 6 6 7 7 7 7 7 8 8 8 8 8 8 8 9 8 7 6 6 6 7 9 10
7 3 10 13 15 11 12 14 15 16 17 16 16 13 11 10 10 10 11 9 13 13 11 15 11 3 5 4 5 3 0 1 3 5 8 8 7 7 7 7 7 6 6 6 5 5 6 8 6 5 3 3 4 4 5 5 5 6 5 6 6 6 7 6 6 6 6 6 6 7 7 7 7 7 8 7 7 8 8 7 7 7 6 8 8 7 8
5 1 4 8 8 14 16 15 14 12 13 13 12 13 14 14 16 17 10 7 11 15 15 4 7 10 9 7 4 4 2 2 5 7 7 6 6 7 8 7 6 5 5 5 5 6 6 5 5 5 6 5 5 6 5 5 6 5 5 5 6 6 7 7 7 7 7 6 6 7 7 7 7 7 7 7 8 8 7 8 8 5 7 8 8 8 8
7 5 3 1 3 6 6 11 15 18 18 18 18 17 17 18 18 15 13 15 19 12 6 5 15 16 11 6 3 1 2 6 7 6 7 8 7 8 8 7 5 4 5 4 4 4 4 5 5 4 4 5 6 6 6 6 5 5 5 5 5 6 7 7 7 8 7 7 7 7 7 7 7 7 7 8 8 8 8 7 5 7 8 8 9 8 8
4 3 4 1 2 11 4 7 16 21 20 20 18 18 18 16 14 13 16 14 6 5 4 6 9 11 11 3 3 6 6 6 6 7 7 7 6 6 6 3 2 2 2 3 2 1 1 2 3 3 3 4 4 3 4 4 5 5 5 6 5 5 6 7 7 8 8 8 9 9 8 7 6 7 7 8 7 7 7 6 6 8 7 9 9 9 9
5 4 5 3 10 7 3 1 5 12 19 20 21 19 19 16 12 9 5 4 4 7 8 12 12 10 5 2 4 5 6 5 6 7 9 7 3 2 2 4 4 4 4 4 5 6 6 5 3 4 6 6 6 5 5 5 3 4 4 5 5 5 6 6 7 8 9 9 9 10 10 8 8 7 6 7 7 7 7 7 7 8 8 7 8 7 8
4 4 6 4 4 2 2 1 9 9 5 3 5 6 5 3 6 6 7 10 11 9 6 5 5 5 7 4 4 2 1 6 8 6 2 2 4 4 3 4 2 3 4 4 5 5 4 5 5 5 5 5 6 7 5 6 7 6 4 4 4 4 6 6 7 7 8 9 9 9 10 10 9 9 8 7 7 7 6 5 5 6 7 6 9 9 8
6 5 10 7 2 3 2 6 7 10 12 8 10 9 10 9 11 14 14 11 6 5 6 7 6 6 4 6 9 2 2 4 3 5 6 4 5 4 3 3 3 1 1 2 2 2 4 4 6 7 5 5 6 6 7 7 7 7 7 7 7 7 6 7 8 8 8 8 9 9 9 9 10 10 10 11 8 5 6 6 5 6 7 7 7 7 8
6 6 4 1 2 6 11 9 3 4 5 7 7 5 11 6 10 12 11 10 10 8 6 6 8 3 4 8 11 2 2 2 4 3 4 3 4 4 3 1 1 1 0 1 1 3 3 4 4 4 4 5 5 5 7 7 8 8 8 9 8 8 8 8 8 8 7 7 9 9 9 9 10 10 9 8 7 6 7 9 8 6 6 7 6 6 8
5 3 7 6 8 11 4 7 7 7 11 13 8 6 14 7 11 10 12 12 10 9 10 13 5 3 6 11 8 4 1 1 3 5 2 2 1 1 2 2 3 1 0 1 1 1 3 5 5 4 4 5 5 5 5 6 5 6 8 9 10 11 11 9 8 8 7 6 7 7 8 9 8 10 10 10 9 7 7 7 8 7 6 7 7 5 6
6 8 6 8 4 5 4 7 4 12 11 14 11 4 11 4 12 13 12 13 13 14 11 6 5 9 8 12 8 5 4 4 3 3 4 3 2 2 2 2 0 1 0 1 5 7 6 4 3 4 4 4 5 5 5 4 6 6 7 7 8 8 8 9 8 8 7 7 6 6 7 7 7 8 8 9 9 8 7 6 7 6 6 7 9 8 4
4 6 3 2 5 4 4 6 5 9 15 14 10 15 7 4 6 7 9 11 11 8 7 6 7 11 9 5 4 6 5 4 3 3 1 1 2 1 1 3 4 5 6 6 5 5 5 4 3 2 2 3 4 4 5 4 6 6 6 7 7 8 8 8 8 8 7 7 9 8 6 7 7 7 6 7 8 8 9 8 6 7 7 7 8 9 6
9 7 6 7 4 7 8 2 12 10 10 7 14 4 3 9 6 7 11 12 6 6 8 8 7 3 5 6 5 5 4 3 1 1 2 3 3 2 1 3 4 4 4 5 5 6 6 6 4 3 2 3 3 3 4 5 5 5 5 6 6 7 9 9 9 8 8 7 7 8 7 7 7 7 6 6 6 7 7 7 8 9 8 7 8 9 7
5 3 3 0 9 3 9 11 6 4 5 6 5 4 1 2 8 7 2 6 5 7 3 3 7 6 5 6 6 4 3 3 1 0 0 0 1 3 4 5 5 3 3 4 4 5 6 5 5 4 3 4 4 3 4 6 4 4 5 4 5 6 7 8 8 9 9 9 9 7 7 7 7 9 7 6 6 5 6 6 7 8 8 8 8 10 9
9 9 9 8 7 8 9 15 8 8 8 5 8 8 5 1 4 8 6 3 6 6 10 9 6 6 6 1 4 3 1 2 1 1 1 1 2 2 3 2 3 1 1 1 2 4 5 5 5 5 3 4 4 5 7 5 5 5 5 5 5 6 6 7 8 8 8 9 8 8 8 8 7 8 9 8 7 6 6 6 7 8 7 7 7 8 10
7 9 7 1 2 5 6 4 6 5 5 7 8 7 9 7 4 3 6 6 3 5 9 8 8 5 4 5 4 4 4 5 4 2 2 2 2 1 1 3 4 3 3 2 2 3 4 4 5 5 4 4 5 5 6 4 6 7 7 8 8 8 8 8 9 10 10 9 8 7 7 7 8 8 8 7 8 6 6 7 6 7 8 6 7 9 9
3 4 2 2 2 2 4 2 1 8 3 2 6 10 6 4 5 7 8 7 7 6 7 9 2 4 5 4 1 1 1 1 2 3 1 1 1 1 1 2 4 4 4 4 3 4 5 4 4 4 4 4 5 7 5 5 5 6 7 8 9 9 8 7 8 9 10 9 8 8 8 6 6 6 8 8 8 8 7 7 6 6 8 7 7 8 9
6 8 3 5 4 2 4 1 3 3 3 2 2 7 5 6 5 4 4 9 6 6 4 5 6 4 2 2 1 1 1 1 1 0 1 0 1 0 0 2 1 2 3 5 6 6 5 5 5 4 5 5 5 6 6 5 6 6 7 8 9 8 8 8 8 7 10 9 10 8 6 7 6 6 6 6 7 7 6 7 8 7 7 7 7 7 9
10 3 1 5 4 3 2 2 3 1 1 3 3 2 4 7 5 6 6 6 6 4 4 3 4 2 0 1 2 2 2 3 3 3 2 2 1 2 1 2 0 1 2 3 5 5 7 6 4 5 4 5 5 5 5 6 6 7 8 8 9 9 10 9 9 10 11 13 13 12 10 8 9 8 6 6 7 7 7 7 8 9 7 7 7 8 9
4 2 1 1 6 2 1 3 3 0 6 7 5 6 8 8 10 7 5 4 5 4 4 3 2 1 1 0 1 2 4 4 4 4 3 2 2 1 2 2 1 4 4 5 5 5 7 5 4 4 4 5 5 7 7 6 7 7 9 7 7 7 7 7 8 7 8 8 9 11 12 11 9 8 9 8 8 9 6 6 7 8 9 9 8 7 7
5 8 7 4 4 3 3 2 1 2 2 8 9 7 8 7 8 6 8 5 4 4 4 3 3 2 1 3 2 2 1 2 3 3 3 2 2 3 3 2 4 4 4 5 5 5 5 4 5 6 6 6 7 6 7 6 7 9 9 8 5 6 6 7 8 9 9 9 9 9 10 11 12 12 9 11 11 9 11 7 12 14 12 10 9 7 9
7 4 5 7 4 2 1 1 1 3 3 8 10 8 7 5 4 5 6 5 5 6 5 5 6 5 3 2 1 1 1 2 3 4 4 6 6 5 4 5 5 5 5 4 4 5 6 6 7 7 7 7 8 7 7 7 7 7 6 7 7 7 7 7 9 10 10 11 10 9 10 10 10 12 15 11 10 15 16 15 15 14 15 17 17 15 11
1 0 1 3 6 8 4 2 4 4 3 9 10 6 6 6 5 6 8 6 6 4 4 5 5 4 4 3 4 3 2 2 4 5 5 5 5 5 5 5 6 5 5 5 6 6 7 7 8 8 9 8 7 7 6 5 5 6 6 7 8 8 8 9 10 10 10 11 11 10 9 8 10 11 11 14 15 8 11 13 12 14 15 16 16 16 17
1 1 1 2 8 11 7 8 5 4 4 6 8 8 7 8 8 8 8 6 6 6 5 6 5 6 5 5 5 6 5 5 5 7 6 5 5 6 6 5 6 6 7 7 7 8 8 8 9 9 9 9 7 4 4 4 5 7 7 8 9 10 9 10 10 11 11 10 10 10 11 11 11 10 11 13 14 17 11 9 15 16 15 17 17 17 16
6 7 9 10 11 8 5 8 9 7 7 7 7 5 8 7 6 8 8 7 7 7 7 6 7 7 6 7 7 6 6 7 7 8 7 8 8 7 7 7 8 8 9 9 9 9 9 9 9 8 8 8 5 3 3 4 5 6 7 7 8 8 9 11 11 10 9 10 10 10 10 11 12 11 11 10 13 13 15 15 11 9 10 12 13 14 14
7 4 9 13 8 7 6 3 5 7 8 9 9 7 6 6 6 7 6 7 7 6 7 7 6 5 5 5 4 3 4 7 7 7 7 7 6 6 7 8 10 10 10 10 9 9 10 10 8 7 6 6 6 6 6 7 9 9 9 9 8 10 15 13 9 9 9 9 9 9 10 11 11 12 12 12 11 12 13 15 14 14 12 9 9 12 12
8 8 4 5 7 5 5 8 10 9 10 9 8 7 5 5 8 9 9 8 7 5 6 6 8 8 8 7 8 10 9 8 8 8 8 8 7 8 8 9 11 10 10 9 9 9 9 7 5 7 9 8 7 6 7 9 9 10 9 9 9 8 8 10 9 9 9 9 9 9 10 10 11 12 13 13 13 12 11 12 12 13 12 9 7 9 14
7 7 7 9 9 7 8 8 9 9 8 7 6 7 7 9 6 6 5 5 4 4 5 5 5 5 5 7 6 7 7 8 9 9 8 8 9 10 10 10 10 10 9 9 9 7 5 7 9 10 9 8 9 9 9 9 9 8 8 8 8 9 9 9 9 9 10 10 10 11 11 11 10 11 11 12 12 12 12 12 13 12 12 11 9 8 8
4 5 7 9 7 8 10 8 6 6 6 6 8 7 7 7 5 3 3 3 4 4 4 5 7 7 6 6 5 6 8 9 10 9 10 10 10 9 10 10 10 8 7 6 5 7 9 10 9 10 10 9 9 7 7 8 8 9 10 10 9 10 9 10 10 11 10 10 11 14 11 10 10 10 11 10 11 12 13 13 14 13 13 11 9 10 11
4 6 8 7 8 8 9 7 6 5 5 5 5 5 6 4 3 2 3 4 4 3 4 5 6 7 6 6 6 6 7 8 9 10 10 10 10 9 9 8 8 9 8 10 11 10 10 10 9 9 9 6 6 7 8 8 8 9 9 9 9 12 17 19 14 11 10 11 10 9 9 9 9 10 11 11 11 10 10 10 11 12 13 12 11 9 9
8 7 8 8 6 6 5 3 4 4 4 4 5 5 6 4 3 3 3 3 3 4 6 6 6 6 6 6 7 8 8 8 9 9 10 9 9 8 6 6 8 10 11 11 10 10 10 10 9 7 5 7 7 7 8 8 8 9 9 9 10 9 11 16 12 12 11 11 10 10 10 9 9 9 9 10 10 10 11 11 12 12 11 11 12 9 9
6 5 3 5 4 5 4 2 2 2 3 2 2 2 2 2 2 2 3 3 4 4 4 5 4 5 5 7 7 8 8 9 10 10 9 8 7 8 9 9 10 10 10 10 10 8 8 10 11 9 9 7 7 8 8 9 9 9 9 8 9 9 11 11 12 11 10 10 10 9 9 9 9 10 10 10 10 10 10 10 10 11 11 10 10 11 11
3 4 3 4 2 3 2 2 1 0 1 1 1 1 1 1 2 3 3 4 4 5 5 5 5 6 6 7 7 7 9 10 9 8 8 10 11 11 11 11 10 12 10 7 8 9 9 8 7 6 7 9 9 8 8 7 7 8 8 9 9 9 10 9 10 9 9 10 10 11 11 11 10 9 9 9 9 9 10 11 12 12 12 12 10 10 12
6 6 6 5 5 5 3 2 1 0 1 3 3 2 2 3 3 4 4 5 5 6 5 6 6 7 7 7 7 7 8 9 10 10 10 10 10 11 10 12 12 8 9 9 10 9 6 6 8 10 10 10 9 8 7 8 8 8 9 9 10 9 9 10 10 9 9 9 9 9 9 9 8 9 9 9 9 9 9 9 9 9 10 11 10 9 9
4 4 4 4 4 3 3 2 1 1 1 2 3 4 5 4 4 4 4 5 5 5 6 7 7 7 7 7 7 7 9 9 9 10 10 10 10 10 11 11 11 11 11 9 8 4 8 9 12 16 12 9 9 8 8 9 9 9 10 10 10 10 10 10 10 10 10 9 10 10 9 11 11 9 9 9 9 9 9 9 10 9 9 9 9 10 11
2 3 2 1 1 2 1 0 0 0 1 2 3 4 5 5 6 6 5 6 6 5 5 6 6 7 7 6 6 7 8 8 8 9 9 10 10 10 11 11 10 9 9 8 6 7 9 8 12 17 11 8 8 7 8 14 9 8 8 8 8 8 8 8 8 8 8 8 9 10 11 10 8 7 8 8 8 8 8 8 9 9 9 9 8 9 9
1 1 0 1 0 0 1 2 1 1 1 3 4 5 5 5 5 5 6 6 6 6 6 6 7 7 7 7 7 8 9 8 9 9 9 10 10 11 11 8 8 8 7 6 7 7 7 10 15 12 8 8 7 8 11 16 16 10 7 7 7 8 8 8 8 8 9 9 8 7 7 7 7 7 7 7 7 8 8 8 8 8 8 8 7 8 8
0 0 1 0 0 0 1 1 0 0 2 6 6 5 4 4 5 4 5 6 6 5 5 6 5 6 7 7 8 8 8 8 7 8 9 11 10 9 9 9 9 7 4 6 7 7 8 9 9 9 8 7 9 9 11 14 15 9 8 7 8 7 8 8 8 8 7 8 8 8 8 7 7 7 7 6 7 7 7 8 7 7 6 7 7 7 7
1 0 1 0 1 1 1 1 1 2 3 3 4 6 5 3 4 4 5 6 6 4 4 4 5 6 7 6 7 8 8 7 7 8 10 10 9 8 9 8 4 1 5 9 7 6 9 13 9 6 6 7 8 8 8 11 12 7 6 6 6 6 6 7 7 7 7 7 8 9 8 8 8 8 7 7 7 7 6 6 6 6 6 6 6 6 7
2 2 1 1 2 1 1 2 3 3 3 4 4 5 4 4 4 4 7 7 7 4 4 4 5 6 7 7 8 9 9 8 7 8 9 7 7 6 5 8 3 4 7 6 7 8 10 9 7 7 7 7 7 9 8 11 9 6 5 6 6 5 5 6 6 6 7 7 7 7 7 7 8 8 7 7 7 7 7 7 7 6 6 6 6 6 6
3 1 2 2 2 3 3 2 2 4 5 4 5 6 5 5 5 7 7 6 6 5 5 6 7 8 7 7 6 7 8 8 7 8 7 7 7 6 6 7 4 5 10 10 9 7 6 6 7 7 7 8 8 13 15 9 6 6 6 6 5 5 6 6 6 5 5 5 5 5 5 5 5 5 6 6 7 7 7 7 7 7 7 8 8 8 7
3 3 4 4 4 3 3 3 3 5 7 6 4 5 5 4 4 5 6 6 6 6 6 6 6 7 7 6 6 7 8 6 6 7 7 8 8 8 8 7 6 7 12 8 7 5 5 4 6 5 11 11 10 15 12 6 6 6 7 6 7 7 6 6 6 5 5 5 5 5 5 5 5 5 5 5 5 5 5 6 6 6 7 7 8 8 8
6 4 4 4 5 5 4 4 4 3 4 8 4 4 5 5 5 6 6 6 6 5 6 6 6 6 7 6 5 6 6 5 4 5 5 8 8 4 3 3 6 8 12 8 6 6 5 5 4 10 14 15 15 14 8 6 6 6 6 7 6 6 6 6 6 5 5 5 5 5 5 6 5 6 6 6 6 6 5 5 5 6 6 6 6 6 6
8 8 7 8 9 5 5 5 6 8 6 3 4 5 5 6 7 6 6 6 6 6 5 6 6 6 6 6 6 6 7 6 5 3 3 6 5 4 1 6 8 7 9 11 7 6 6 6 9 14 12 14 13 12 6 5 6 6 6 5 5 5 5 5 6 5 5 5 5 5 6 6 5 5 5 5 6 5 6 6 6 6 6 6 6 6 6
9 10 10 8 8 10 10 8 7 4 4 4 6 7 6 6 8 6 8 9 9 6 7 6 6 7 7 7 5 6 6 7 7 6 7 7 6 5 6 8 8 8 14 14 6 7 7 12 13 12 12 11 11 6 5 5 5 5 5 5 5 6 5 5 5 6 5 6 6 6 6 5 5 5 5 5 5 5 5 7 7 6 6 6 6 6 6
10 9 9 10 11 9 8 8 8 6 6 4 6 7 4 8 4 4 5 7 9 9 8 7 9 10 10 8 6 4 5 6 6 3 5 4 1 4 6 8 9 11 10 8 7 7 7 9 10 12 11 10 8 4 4 4 4 5 5 5 6 5 5 5 6 5 6 6 7 7 7 6 5 5 6 5 6 6 6 6 6 6 6 6 6 7 7
10 10 10 10 11 10 8 8 8 6 8 10 8 6 4 3 3 4 4 4 6 5 4 4 4 6 8 7 7 5 5 1 5 6 0 0 3 4 5 4 6 10 11 9 9 8 12 13 14 13 12 10 5 4 4 4 5 5 5 5 5 5 5 5 5 6 6 6 6 5 5 5 5 5 5 5 6 6 6 6 5 6 6 6 5 5 5
9 10 9 8 5 8 6 5 5 6 7 6 6 6 4 2 4 4 4 4 6 4 4 4 6 6 3 4 4 4 4 4 5 6 3 4 6 6 6 6 9 9 7 5 6 5 8 12 12 12 12 9 6 5 4 4 4 4 4 4 4 4 5 5 5 5 5 5 6 5 5 5 6 6 6 6 6 6 7 6 6 5 6 5 5 6 5
4 3 5 6 6 6 7 6 6 7 6 4 5 4 1 0 4 6 2 2 3 5 4 5 4 4 4 4 3 3 2 3 4 5 5 5 5 5 5 5 5 8 8 5 4 5 7 10 9 9 7 5 5 5 4 4 3 3 3 4 4 4 5 6 6 6 5 5 4 4 5 5 5 6 7 5 6 6 6 6 5 8 11 8 6 6 6
5 5 6 6 5 6 6 7 6 4 3 5 4 2 1 3 6 6 4 4 3 5 6 5 5 5 4 3 3 2 1 2 3 4 4 5 3 5 5 4 5 5 6 5 4 5 5 5 5 5 5 5 5 5 4 4 3 3 4 3 4 4 4 5 5 4 4 5 4 4 5 5 4 5 5 5 6 6 6 6 6 5 5 5 6 5 5
5 5 5 4 5 5 5 6 6 6 5 4 4 3 4 5 4 6 5 5 5 5 5 4 6 3 1 2 2 2 2 2 3 2 4 5 4 4 5 5 5 5 5 4 5 4 4 5 5 6 5 4 4 4 5 6 4 4 4 4 3 4 4 5 5 4 4 5 5 4 5 4 4 5 5 5 5 5 5 5 5 5 5 5 5 5 5
Wind_Direction
205 143 147 156 170 186 185 184 178 182 181 177 190 203 209 162 176 199 215 192 206 238 244 249 220 191 225 252 266 260 307 97 13 342 313 285 269 268 271 270 268 267 272 272 273 273 268 276 280 279 280 287 305 314 312 327 338 334 331 337 321 311 307 294 287 293 300 301 297 300 300 299 298 297 296 294 293 288 281 273 267 261 261 259 256 249 247
215 178 171 173 173 181 185 186 184 184 179 186 192 203 196 168 201 215 213 187 216 227 239 247 254 170 196 231 237 322 46 340 309 292 281 268 265 264 261 262 271 269 253 248 250 263 285 284 277 283 305 314 320 337 336 337 343 331 350 333 330 320 312 298 297 300 299 300 302 304 304 301 299 297 296 294 292 290 287 283 287 289 291 281 267 262 261
218 185 189 172 178 183 187 192 187 184 185 187 194 198 194 193 223 225 223 207 231 247 246 249 264 98 195 250 280 325 229 222 230 239 248 254 260 265 268 264 259 258 262 257 260 282 284 287 314 338 327 336 345 350 352 348 340 328 345 334 330 325 316 311 306 302 302 297 303 304 299 301 299 299 296 296 294 291 288 290 292 295 301 296 283 276 270
220 284 190 201 186 188 187 189 181 170 173 184 197 205 204 189 204 214 211 213 240 244 234 280 299 269 243 251 277 282 285 221 230 237 249 252 250 254 258 260 263 277 275 294 313 287 294 328 354 356 357 354 8 4 343 341 328 329 338 331 325 320 313 317 321 320 315 310 310 304 307 302 302 299 299 298 294 289 290 291 287 301 294 279 281 283 283
204 205 168 339 82 115 203 200 179 181 189 194 199 210 207 204 196 198 198 221 223 223 91 206 251 260 276 288 244 229 236 201 210 222 231 239 247 247 251 259 274 277 301 336 359 9 23 8 360 355 6 24 8 339 340 324 331 338 338 330 325 325 325 328 327 327 325 326 319 313 310 307 306 307 304 299 294 294 289 286 301 292 282 289 284 283 277
162 182 168 121 178 204 228 173 190 184 187 194 198 207 212 215 195 207 204 224 238 232 213 219 250 262 259 252 188 181 178 216 236 241 235 227 224 244 268 336 24 20 15 14 23 57 31 350 354 339 21 21 337 303 307 320 339 341 340 337 337 331 334 333 331 329 328 329 326 320 318 316 315 314 311 302 297 291 289 298 291 285 284 279 280 281 281
163 134 107 175 228 218 238 203 196 196 201 198 199 206 211 212 210 220 234 236 199 206 207 222 233 248 282 271 225 226 208 198 228 255 284 316 90 144 85 60 21 18 12 4 7 5 8 358 356 14 11 3 351 350 351 352 355 348 349 338 343 344 341 331 332 332 331 329 325 322 322 322 321 314 305 301 301 295 295 290 288 281 284 285 277 275 277
49 102 169 203 218 238 34 224 232 229 215 198 182 255 268 216 190 186 217 216 213 210 218 241 236 237 249 280 247 248 208 196 198 231 224 93 92 98 114 109 74 37 20 7 357 343 335 5 5 19 6 350 2 346 338 353 351 353 351 350 340 346 340 335 333 329 328 325 322 322 322 323 323 320 317 307 303 301 292 288 278 280 281 269 276 277 272
161 184 189 218 11 12 221 232 228 197 199 172 177 216 244 205 191 191 209 222 233 232 224 228 242 256 297 299 275 69 69 70 84 122 125 128 113 116 120 122 104 86 15 18 343 348 356 10 14 360 345 359 1 351 355 350 351 347 350 351 348 344 336 332 330 328 328 323 320 319 320 321 319 319 319 318 313 301 300 287 281 279 274 272 271 275 276
140 134 176 199 230 234 228 218 274 163 156 155 169 184 258 223 203 197 198 213 222 219 217 224 230 197 241 265 260 106 30 77 105 69 98 103 115 119 123 145 148 150 152 350 357 62 24 9 4 352 349 360 4 357 349 346 351 348 350 345 338 335 331 329 325 324 322 321 318 317 319 317 314 310 306 298 296 306 302 303 299 281 275 281 269 261 268
115 138 168 195 196 233 210 185 196 164 150 149 134 156 245 230 189 190 195 211 216 204 210 227 176 97 225 248 247 171 165 146 132 104 100 94 70 67 82 92 36 35 130 167 179 114 62 28 348 354 356 6 5 353 348 345 346 344 342 336 337 333 328 324 321 317 313 311 308 308 311 310 310 308 307 305 302 302 293 288 284 292 288 284 281 260 252
185 176 178 213 203 239 224 205 192 172 140 122 113 150 253 215 155 194 186 196 206 214 219 197 151 176 227 244 242 178 173 151 162 133 119 77 57 30 342 340 290 308 328 70 24 20 19 354 318 349 2 15 360 346 339 345 348 342 333 325 317 314 313 315 316 314 311 307 301 300 300 297 296 293 296 304 304 304 296 285 289 292 287 284 288 288 273
183 174 248 343 293 268 206 213 181 147 141 125 144 206 229 242 204 188 168 190 204 195 195 161 183 213 212 211 158 155 147 85 31 19 57 126 153 122 13 348 356 16 16 33 12 341 326 325 339 355 41 31 350 334 333 344 334 319 312 314 316 315 314 313 313 311 309 306 307 302 289 289 286 286 286 286 295 301 303 304 296 293 290 288 289 289 284
184 191 183 227 251 237 186 216 152 163 119 183 197 221 188 144 171 181 174 190 206 181 193 187 207 167 138 120 105 113 114 138 147 40 346 352 351 336 336 351 27 20 16 9 356 342 331 335 336 350 36 9 328 317 326 315 298 299 304 304 308 312 315 313 312 311 311 305 296 295 296 298 301 294 284 275 277 282 284 292 299 299 298 293 290 289 285
51 82 178 227 250 251 144 130 140 246 159 233 194 159 220 206 147 133 151 143 170 131 116 150 135 137 119 129 135 135 144 143 168 162 358 359 323 333 347 352 354 46 15 359 341 320 315 323 329 328 2 341 327 323 315 290 280 283 285 289 297 299 301 306 308 309 309 310 309 306 300 299 300 305 304 301 290 279 284 291 289 291 292 293 295 298 298
172 170 183 206 209 140 172 140 161 213 203 189 150 138 148 216 162 144 143 188 180 167 138 150 146 146 133 127 164 152 184 210 256 303 297 308 313 313 299 269 290 23 46 328 314 312 311 311 318 317 331 311 312 320 300 300 312 303 297 297 299 307 309 308 309 309 307 304 298 295 300 305 308 305 311 311 306 302 298 295 300 300 296 292 292 295 302
155 204 202 237 249 178 203 187 198 155 170 144 169 140 151 161 233 210 129 168 162 167 141 145 147 148 178 168 178 163 177 168 185 200 235 219 207 231 282 307 319 346 347 332 304 300 296 295 301 306 301 300 298 297 286 309 310 315 319 321 319 314 312 313 315 315 311 305 300 298 301 306 311 315 311 315 314 311 306 303 295 295 295 297 295 297 300
289 316 156 206 145 162 216 258 141 143 154 127 137 133 137 219 182 175 156 161 155 149 147 132 164 156 176 173 208 202 224 176 182 178 230 267 255 261 297 318 330 332 350 350 338 312 302 287 281 282 284 279 286 279 295 305 306 314 316 318 315 312 307 305 304 303 303 303 303 304 304 299 294 292 300 308 306 307 307 296 293 290 296 300 298 298 297
137 246 157 141 193 242 233 124 20 49 93 157 156 141 158 171 150 108 117 141 140 136 116 129 147 171 156 161 261 289 325 322 311 359 164 226 234 211 245 280 336 8 9 338 325 319 314 297 291 282 276 276 267 283 294 300 305 307 310 308 305 307 309 309 309 309 312 314 313 305 300 299 290 285 284 285 286 289 289 295 295 292 288 294 297 296 298
182 224 189 212 198 201 208 157 131 162 57 45 40 112 125 116 106 107 127 109 100 93 104 120 124 152 163 127 298 333 324 326 333 338 348 340 337 308 280 295 98 22 334 306 304 308 307 302 301 300 295 292 293 298 297 303 308 311 311 310 310 313 317 320 322 325 322 321 321 315 315 311 305 301 281 272 282 280 287 287 296 296 292 287 287 293 300
271 351 312 64 77 35 324 331 339 150 152 119 81 91 101 105 102 98 81 93 140 116 134 127 112 99 343 203 301 339 335 350 356 349 344 332 317 312 358 327 333 319 297 302 290 295 295 306 325 325 317 311 312 309 307 306 306 309 303 300 295 295 297 301 300 302 301 299 303 306 307 310 299 292 300 299 287 282 242 237 250 270 288 278 274 273 273
242 211 208 154 130 236 264 320 344 84 79 111 108 97 86 90 102 104 104 70 59 90 89 114 117 95 1 4 68 28 326 311 313 338 348 347 346 336 309 311 318 316 308 290 295 301 307 325 335 329 323 321 315 310 306 307 312 311 308 307 303 300 304 310 312 314 311 309 305 302 302 303 306 301 270 263 275 280 292 258 244 249 248 266 269 278 284
228 211 197 187 132 75 300 169 98 96 100 110 105 104 110 99 102 112 100 92 60 43 31 49 77 78 80 6 84 76 19 333 345 348 355 353 348 339 338 339 337 329 317 329 344 340 325 329 320 321 317 318 315 312 312 313 316 309 318 318 315 314 318 317 317 313 310 310 309 304 303 303 303 304 309 297 260 264 263 270 271 265 264 263 266 264 260
46 147 256 198 152 171 152 113 88 77 81 98 98 93 83 75 72 75 72 69 82 50 28 37 54 57 57 39 48 34 354 12 11 6 357 344 333 331 338 344 329 341 348 349 337 321 319 318 319 317 315 313 312 311 326 343 354 355 346 336 320 317 316 311 312 309 303 303 304 302 302 302 300 303 303 306 307 273 264 274 265 268 271 270 268 265 264
208 352 61 91 98 99 105 111 92 81 66 80 84 64 61 64 46 54 64 53 52 52 43 23 26 43 42 25 36 24 7 351 6 352 341 334 335 341 336 340 349 349 338 327 321 317 316 315 314 312 308 307 310 340 6 12 5 348 337 326 316 312 310 309 307 308 304 303 304 307 307 307 307 302 300 303 302 310 303 276 283 281 275 271 268 268 267
85 94 86 83 87 93 123 93 57 44 46 73 79 62 46 54 56 61 52 51 48 46 48 30 18 17 41 38 22 8 6 356 345 341 340 345 341 343 346 350 341 334 325 319 313 309 307 305 300 300 300 301 321 339 343 344 338 325 314 307 300 301 305 306 305 303 302 300 300 300 299 298 298 299 298 295 296 296 302 310 302 277 259 258 262 264 263
40 31 95 78 67 66 23 81 116 78 65 62 74 74 48 36 50 67 65 56 53 46 51 42 36 14 25 36 20 18 0 333 341 346 344 335 336 337 340 334 326 320 313 308 304 300 297 297 298 297 300 310 319 323 327 331 326 320 314 309 305 300 303 302 295 294 293 290 288 288 293 294 295 297 295 296 293 292 295 296 297 298 303 293 272 261 269
47 26 2 143 165 147 105 80 86 78 64 56 51 47 29 40 48 43 34 25 22 28 37 40 26 15 4 360 3 342 348 349 344 331 330 326 327 330 322 318 314 308 305 300 295 294 293 297 308 313 308 308 307 308 312 308 302 296 292 292 293 292 293 295 290 286 286 288 286 284 284 283 283 283 288 290 289 290 288 286 288 292 292 283 282 287 280
26 20 27 57 81 98 94 90 70 62 57 48 57 52 47 51 46 49 37 30 18 16 5 9 19 23 6 345 354 341 336 330 327 325 320 319 319 316 315 310 303 300 296 291 288 290 308 317 310 304 299 306 302 297 292 292 292 295 295 296 297 296 296 294 291 288 287 284 281 281 279 281 280 278 280 284 287 289 288 287 289 288 285 293 294 281 258
7 15 50 47 55 86 92 75 75 62 50 33 42 48 47 59 49 32 14 8 19 9 355 359 351 349 356 340 346 339 328 322 316 314 313 310 310 310 305 303 298 291 281 278 300 316 310 303 299 297 303 303 299 314 334 330 317 310 306 302 296 294 293 293 290 287 283 279 279 280 278 276 274 276 278 277 279 281 284 287 288 291 294 296 294 292 296
40 55 66 68 68 60 77 89 90 83 67 44 41 56 50 62 73 29 353 356 358 347 353 350 336 329 337 336 325 324 316 312 309 306 303 302 299 298 296 297 303 305 313 311 310 303 295 293 292 295 302 328 360 346 332 320 312 308 302 300 295 293 294 295 292 289 286 285 281 279 276 276 275 280 283 284 282 279 281 282 285 287 291 290 290 292 296
111 69 54 45 49 74 68 56 70 61 45 28 35 36 29 29 7 349 334 347 345 350 330 334 329 326 322 322 323 317 313 303 298 295 294 293 290 287 287 296 299 300 297 295 291 291 288 287 290 305 347 339 326 328 322 310 309 304 299 300 298 296 294 294 292 289 288 285 286 285 284 288 288 286 285 285 285 288 289 290 290 293 292 293 294 294 299
130 130 139 97 82 66 60 19 59 32 30 32 47 47 31 22 15 349 334 324 320 323 319 306 311 310 314 313 312 307 303 301 296 293 290 289 297 306 311 303 292 287 288 285 289 298 313 313 308 318 321 321 319 311 311 309 308 305 304 303 298 298 295 292 287 288 286 285 284 283 287 287 288 287 284 285 287 288 289 290 292 295 295 297 302 306 310
96 104 114 118 116 146 169 189 90 27 340 6 2 24 9 352 344 329 324 324 316 313 315 312 314 312 307 305 302 303 306 306 304 303 304 306 304 301 295 291 287 283 280 300 319 317 306 307 319 320 317 316 311 309 307 310 305 301 299 299 293 293 296 293 293 290 289 289 287 289 289 288 287 284 283 284 288 290 295 295 296 295 294 292 292 297 299
64 72 72 75 60 66 64 108 142 187 304 303 309 327 335 339 335 321 315 319 312 304 311 315 310 303 301 299 300 299 298 292 293 297 298 298 295 294 294 288 286 298 315 317 312 303 326 325 317 322 320 315 312 313 316 314 309 301 298 295 298 298 299 298 297 293 293 292 293 292 288 287 286 290 293 297 297 295 293 291 292 292 294 296 294 299 300
68 82 88 76 81 79 85 92 75 57 337 309 305 318 315 312 310 308 305 295 298 305 303 302 300 300 299 299 297 298 296 292 293 293 294 295 298 296 298 307 313 312 305 304 293 333 342 329 326 323 320 313 310 310 313 314 309 309 306 306 304 301 296 291 289 285 285 285 286 285 285 286 288 292 296 296 295 293 294 293 292 295 298 309 319 321 317
74 104 98 89 78 97 104 90 182 266 271 277 296 300 294 296 295 293 298 297 298 296 295 292 297 299 292 290 289 290 291 294 294 295 295 298 302 310 309 303 298 297 304 301 319 357 323 306 309 315 314 308 306 304 309 317 313 308 302 295 287 287 286 284 284 279 278 278 280 282 286 290 291 295 299 302 299 300 305 308 316 318 316 313 314 315 320
108 123 171 155 181 159 216 231 231 198 263 304 271 259 267 276 283 287 287 290 291 291 294 294 290 291 298 304 301 294 289 288 288 291 301 308 310 304 300 297 302 308 305 301 318 318 303 313 318 318 312 311 311 313 315 317 316 311 295 296 291 290 287 286 286 283 284 283 284 294 304 313 312 313 312 313 318 323 319 320 323 324 325 327 328 331 332
36 58 80 124 83 186 252 302 11 271 215 238 267 273 264 263 270 278 278 276 276 283 286 287 291 299 295 293 286 285 284 283 292 305 306 300 296 298 291 298 288 290 276 298 314 311 312 316 319 317 313 311 318 317 313 312 311 308 301 295 295 285 286 276 275 281 299 319 327 322 317 316 317 320 323 323 324 323 324 329 329 329 334 336 338 338 340
203 177 240 328 307 273 324 291 277 258 256 235 248 269 276 294 285 281 280 285 279 274 275 283 295 287 287 281 281 279 281 287 295 299 295 294 297 298 296 289 267 305 317 322 316 305 315 324 323 312 313 315 313 308 302 306 310 306 303 306 303 306 312 328 337 342 340 341 335 335 335 332 330 327 324 329 328 329 332 332 336 339 342 344 347 345 344
223 219 243 197 251 258 254 281 284 269 265 269 258 260 268 259 268 279 274 271 277 276 264 260 265 269 267 269 271 275 282 290 293 289 289 297 290 291 295 297 309 11 324 317 316 319 325 328 327 325 321 319 313 320 319 326 331 322 318 323 327 334 338 340 349 349 347 343 346 343 338 340 337 335 337 339 340 342 339 342 344 347 346 347 345 343 349
250 207 226 241 250 252 256 261 292 308 292 260 257 258 259 247 234 245 258 267 273 274 264 261 244 252 260 262 269 284 288 287 287 284 282 274 273 282 293 274 324 337 318 324 319 321 319 321 328 327 324 325 325 330 337 338 335 329 332 330 336 343 347 347 351 347 345 345 341 338 336 336 339 338 341 347 350 351 348 351 351 351 355 356 354 353 353
229 213 221 225 236 244 247 248 249 256 278 281 257 252 254 254 250 255 260 260 258 262 263 258 261 265 270 276 279 277 278 278 280 284 289 272 261 242 242 263 320 316 321 324 318 312 314 311 322 311 333 337 337 341 345 347 341 341 340 343 344 348 348 349 345 342 343 343 346 344 337 338 344 342 340 346 342 337 345 355 0 1 3 3 359 356 355
216 214 212 215 231 232 214 222 236 252 266 274 253 232 246 256 251 247 252 250 253 247 245 252 251 248 250 249 251 265 274 277 282 284 298 302 307 300 226 233 304 312 322 320 321 313 310 318 312 335 339 345 350 354 353 348 351 346 344 346 347 346 345 344 341 341 343 345 346 341 339 350 349 347 350 342 342 342 350 358 358 4 4 4 3 2 3
211 212 213 219 222 218 221 223 218 223 228 247 271 264 249 243 248 236 229 237 241 248 244 243 242 244 243 237 237 246 248 253 252 259 281 303 321 289 336 350 326 318 318 327 322 316 314 316 333 341 346 351 358 2 4 356 354 349 342 342 344 348 348 344 342 338 339 341 343 347 354 354 348 346 339 336 341 345 350 356 357 0 3 3 359 2 0
217 219 217 216 220 224 225 218 229 226 244 262 276 269 244 225 221 229 222 227 246 249 240 238 242 249 246 247 250 254 258 259 248 226 216 215 228 274 316 326 323 324 323 327 319 321 317 325 334 340 349 355 1 2 360 358 356 347 341 343 351 352 350 346 344 341 342 345 345 350 350 347 347 339 335 331 332 343 353 5 4 5 1 359 358 359 357
222 227 219 215 229 231 230 227 227 226 229 237 258 268 225 202 216 222 236 239 242 250 254 251 248 254 249 238 238 277 299 307 300 258 213 211 263 306 313 320 318 320 324 324 325 321 321 328 331 337 347 356 9 6 360 359 352 353 351 354 355 350 345 342 343 341 346 347 355 353 351 350 343 339 339 348 350 356 355 360 2 360 357 357 358 1 0
210 223 230 219 224 232 221 220 216 224 223 228 229 242 253 245 255 258 257 263 265 266 268 261 259 272 269 246 227 219 216 218 306 307 336 337 325 320 319 315 311 319 322 323 321 318 323 329 334 337 344 354 357 358 356 3 4 358 357 351 345 341 338 336 344 351 346 349 349 343 341 345 345 343 346 350 353 352 354 356 359 357 356 354 350 351 356
214 223 237 236 235 230 220 219 220 230 241 235 226 246 240 251 278 284 282 280 283 284 271 278 284 285 277 233 212 219 225 199 196 246 292 340 324 317 312 312 318 318 318 314 314 310 320 329 334 338 342 347 344 344 355 355 356 355 351 347 340 342 340 344 345 344 341 344 343 342 344 346 345 348 350 351 349 351 352 354 353 354 351 344 343 347 358
230 228 250 245 235 229 219 214 225 233 240 227 233 244 212 103 305 280 267 269 273 276 278 275 272 272 267 256 235 229 232 238 256 271 285 290 300 299 297 306 303 313 314 311 313 313 317 325 330 334 341 335 334 336 333 340 348 340 340 343 339 338 339 344 340 341 336 333 333 338 342 345 347 355 356 345 347 349 348 347 348 349 352 352 348 352 354
220 222 233 234 234 236 217 215 232 229 223 228 232 224 199 220 242 266 270 269 275 281 280 283 276 269 264 252 246 251 249 263 276 276 285 289 286 293 298 297 306 305 306 308 305 305 310 310 312 326 329 331 327 322 317 324 332 334 336 339 337 335 335 337 329 327 328 333 337 334 339 341 349 353 352 350 347 346 346 346 348 343 341 343 346 346 348
229 232 246 249 246 258 251 250 250 246 239 236 223 223 225 231 247 269 271 254 242 249 255 281 296 289 217 234 266 277 276 265 261 277 288 285 289 282 290 302 302 299 298 296 294 296 300 302 312 320 322 322 314 316 317 324 331 329 332 337 337 338 335 332 328 326 327 337 330 331 343 337 351 358 351 347 345 340 341 338 335 335 336 339 339 339 340